TimeEET,TemperatureF,Dew PointF,Humidity,Sea Level PressureIn,VisibilityMPH,Wind Direction,Wind SpeedMPH,Gust SpeedMPH,PrecipitationIn,Events,Conditions,WindDirDegrees,DateUTC
12:20 AM,42.8,42.8,100,29.89,2.5,NNW,3.5,-,N/A,,Partly Cloudy,340,2013-01-28 22:20:00
12:50 AM,42.8,41.0,93,29.89,3.1,North,5.8,-,N/A,,Partly Cloudy,350,2013-01-28 22:50:00
1:20 AM,42.8,42.8,100,29.89,3.7,Variable,1.2,-,N/A,,Partly Cloudy,0,2013-01-28 23:20:00
1:50 AM,42.8,41.0,93,29.89,6.2,NNW,6.9,-,N/A,,Partly Cloudy,340,2013-01-28 23:50:00
2:00 AM,42,42,98,29.90,6,NNW,6.9,,,,Scattered Clouds,340,2013-01-29 00:00:00
2:20 AM,41.0,41.0,100,29.92,6.2,NNW,5.8,-,N/A,,Partly Cloudy,340,2013-01-29 00:20:00
2:50 AM,41.0,41.0,100,29.89,6.2,NNW,4.6,-,N/A,,Partly Cloudy,340,2013-01-29 00:50:00
3:20 AM,42.8,41.0,93,29.89,6.2,North,4.6,-,N/A,,Partly Cloudy,360,2013-01-29 01:20:00
3:50 AM,41.0,41.0,100,29.89,6.2,North,5.8,-,N/A,,Partly Cloudy,360,2013-01-29 01:50:00
4:20 AM,41.0,39.2,93,29.89,6.2,NNW,4.6,-,N/A,,Partly Cloudy,340,2013-01-29 02:20:00
4:50 AM,42.8,41.0,93,29.89,6.2,NW,5.8,-,N/A,,Partly Cloudy,320,2013-01-29 02:50:00
5:20 AM,42.8,39.2,87,29.89,6.2,NNW,10.4,-,N/A,,Partly Cloudy,330,2013-01-29 03:20:00
5:50 AM,41.0,39.2,93,29.89,6.2,NNW,8.1,-,N/A,,Partly Cloudy,340,2013-01-29 03:50:00
6:20 AM,46.4,39.2,76,29.89,6.2,North,8.1,-,N/A,,Partly Cloudy,360,2013-01-29 04:20:00
6:50 AM,44.6,39.2,81,29.89,6.2,North,9.2,-,N/A,,Partly Cloudy,360,2013-01-29 04:50:00
7:20 AM,44.6,39.2,81,29.92,6.2,NW,11.5,-,N/A,,Partly Cloudy,320,2013-01-29 05:20:00
7:50 AM,46.4,39.2,76,29.92,6.2,NNW,9.2,-,N/A,,Partly Cloudy,330,2013-01-29 05:50:00
8:00 AM,47,40,68,29.91,6,NNW,9.2,,,,Scattered Clouds,330,2013-01-29 06:00:00
8:20 AM,48.2,41.0,76,29.92,6.2,North,10.4,-,N/A,,Partly Cloudy,350,2013-01-29 06:20:00
8:50 AM,51.8,39.2,62,29.92,6.2,NNW,11.5,-,N/A,,Partly Cloudy,330,2013-01-29 06:50:00
9:20 AM,53.6,41.0,62,29.92,6.2,NNW,11.5,-,N/A,,Scattered Clouds,340,2013-01-29 07:20:00
9:50 AM,55.4,41.0,58,29.92,6.2,NNW,13.8,-,N/A,,Scattered Clouds,340,2013-01-29 07:50:00
10:20 AM,55.4,33.8,44,29.92,6.2,NW,15.0,-,N/A,,Scattered Clouds,320,2013-01-29 08:20:00
10:50 AM,55.4,33.8,44,29.92,6.2,NW,16.1,-,N/A,,Scattered Clouds,320,2013-01-29 08:50:00
11:20 AM,57.2,37.4,48,29.92,6.2,NNW,18.4,-,N/A,,Scattered Clouds,340,2013-01-29 09:20:00
11:50 AM,57.2,35.6,44,29.92,6.2,NNW,15.0,-,N/A,,Scattered Clouds,330,2013-01-29 09:50:00
12:20 PM,57.2,33.8,41,29.92,6.2,NNW,15.0,-,N/A,,Scattered Clouds,340,2013-01-29 10:20:00
12:50 PM,57.2,35.6,44,29.89,6.2,NNW,15.0,-,N/A,,Scattered Clouds,330,2013-01-29 10:50:00
1:20 PM,57.2,33.8,41,29.89,6.2,NNW,15.0,-,N/A,,Mostly Cloudy,330,2013-01-29 11:20:00
1:50 PM,59.0,33.8,39,29.89,6.2,NNW,12.7,-,N/A,,Mostly Cloudy,340,2013-01-29 11:50:00
2:00 PM,58,33,27,29.89,6,NNW,12.7,,,,Partly Cloudy,340,2013-01-29 12:00:00
2:20 PM,59.0,33.8,39,29.89,6.2,NNW,15.0,-,N/A,,Mostly Cloudy,330,2013-01-29 12:20:00
2:50 PM,59.0,33.8,39,29.86,6.2,NNW,13.8,-,N/A,,Mostly Cloudy,330,2013-01-29 12:50:00
3:20 PM,57.2,35.6,44,29.86,6.2,North,13.8,-,N/A,,Mostly Cloudy,350,2013-01-29 13:20:00
3:50 PM,57.2,35.6,44,29.86,6.2,North,16.1,-,N/A,,Mostly Cloudy,350,2013-01-29 13:50:00
4:20 PM,57.2,35.6,44,29.86,6.2,North,15.0,-,N/A,,Mostly Cloudy,350,2013-01-29 14:20:00
4:50 PM,53.6,35.6,51,29.86,6.2,NNW,10.4,-,N/A,,Scattered Clouds,340,2013-01-29 14:50:00
5:20 PM,51.8,35.6,54,29.86,6.2,NNW,9.2,-,N/A,,Scattered Clouds,340,2013-01-29 15:20:00
5:50 PM,50.0,37.4,62,29.89,6.2,NNW,9.2,-,N/A,,Scattered Clouds,340,2013-01-29 15:50:00
6:20 PM,50.0,37.4,62,29.89,6.2,NNW,6.9,-,N/A,,Scattered Clouds,330,2013-01-29 16:20:00
6:50 PM,50.0,37.4,62,29.89,6.2,NW,6.9,-,N/A,,Scattered Clouds,320,2013-01-29 16:50:00
7:20 PM,50.0,35.6,58,29.89,6.2,NW,8.1,-,N/A,,Scattered Clouds,320,2013-01-29 17:20:00
7:50 PM,50.0,35.6,58,29.89,6.2,NNW,5.8,-,N/A,,Scattered Clouds,330,2013-01-29 17:50:00
8:00 PM,50,35,43,29.89,6,NNW,5.8,,,,Partly Cloudy,330,2013-01-29 18:00:00
8:20 PM,48.2,35.6,62,29.89,6.2,NW,5.8,-,N/A,,Scattered Clouds,320,2013-01-29 18:20:00
8:50 PM,48.2,37.4,66,29.92,6.2,NNW,4.6,-,N/A,,Mostly Cloudy,330,2013-01-29 18:50:00
9:20 PM,48.2,35.6,62,29.92,6.2,NNW,6.9,-,N/A,,Mostly Cloudy,340,2013-01-29 19:20:00
9:50 PM,48.2,35.6,62,29.89,6.2,North,6.9,-,N/A,,Mostly Cloudy,350,2013-01-29 19:50:00
10:20 PM,48.2,37.4,66,29.89,6.2,North,8.1,-,N/A,,Mostly Cloudy,350,2013-01-29 20:20:00
10:50 PM,48.2,37.4,66,29.89,6.2,NNW,6.9,-,N/A,,Mostly Cloudy,340,2013-01-29 20:50:00
11:20 PM,50.0,35.6,58,29.89,6.2,NNW,8.1,-,N/A,,Mostly Cloudy,330,2013-01-29 21:20:00
11:50 PM,48.2,35.6,62,29.89,6.2,NNW,8.1,-,N/A,,Mostly Cloudy,340,2013-01-29 21:50:00